CAPE
0 0 0 0 0 0 0 0 0 5 2 1 0 1 0 0 0 0 0 0 0 0 0 3 1 2 2 3 5 8 23 30 36 10 7 13 10 7
0 0 0 0 0 0 0 0 0 4 6 0 1 2 0 0 0 0 0 0 0 2 0 1 1 0 1 2 3 3 4 4 8 9 5 3 1 0
0 0 0 0 0 0 0 0 0 1 1 0 2 2 1 1 0 0 0 0 0 2 2 0 1 1 1 0 1 1 2 4 5 5 4 2 2 0
0 0 0 0 0 0 0 0 0 0 0 0 2 2 1 0 0 0 0 0 0 0 1 1 0 1 2 0 0 0 0 0 0 1 1 1 2 2
0 0 0 0 0 0 0 0 0 0 0 0 0 3 1 0 0 0 0 0 0 0 0 0 0 2 2 0 1 0 0 0 0 0 0 0 0 0
0 0 0 0 0 0 0 0 0 0 0 0 0 2 1 1 0 0 0 0 0 0 0 0 0 0 0 0 0 0 0 0 0 0 0 0 0 0
0 0 0 0 0 0 0 0 0 0 0 0 0 0 0 0 0 0 0 0 0 0 0 0 0 0 0 0 0 0 0 0 0 0 0 0 0 0
0 0 0 0 0 0 0 0 0 0 0 0 0 0 0 0 0 0 0 0 0 0 0 0 0 0 0 0 0 0 0 0 0 0 0 0 0 0
0 0 0 0 0 0 0 0 0 0 0 0 0 0 0 0 0 0 0 0 0 0 0 0 0 0 0 0 0 0 0 0 0 0 0 0 0 0
0 0 0 0 0 0 0 0 0 0 0 0 0 0 0 0 0 0 0 0 0 0 0 0 0 0 0 0 0 0 0 0 0 1 0 0 0 0
0 0 0 0 0 0 0 0 0 0 0 0 0 0 0 0 0 0 0 0 0 0 0 0 0 0 0 0 0 0 0 2 0 0 0 0 0 0
0 0 0 0 0 0 0 0 0 0 0 0 0 0 0 0 0 0 0 0 0 0 0 0 0 0 0 0 0 0 0 0 0 0 0 0 0 0
0 0 0 0 0 0 0 0 0 0 0 0 0 0 0 0 0 0 0 0 0 0 0 0 0 0 0 0 0 0 0 0 0 0 0 0 0 0
0 0 0 0 0 0 0 0 0 0 0 0 0 0 0 0 0 0 0 0 0 0 0 0 0 0 0 0 0 0 0 0 0 0 0 0 0 0
0 0 0 0 0 0 0 0 0 0 0 0 0 0 0 0 0 0 0 0 0 0 0 0 0 0 0 0 0 0 0 0 0 0 0 0 0 0
0 0 0 0 0 0 0 0 0 0 0 0 0 0 0 0 0 0 0 0 0 0 0 0 0 0 0 0 0 0 0 0 0 0 0 0 0 0
0 0 0 0 0 0 0 0 0 0 0 0 0 0 0 0 0 0 0 0 0 0 0 0 0 0 0 0 0 0 0 0 0 0 0 0 0 0
0 0 0 0 0 0 0 0 0 0 0 0 0 0 0 0 0 0 0 0 0 0 0 0 0 0 0 0 0 0 0 0 0 0 1 0 0 0
0 0 0 0 0 0 0 0 0 0 0 0 0 0 0 0 0 0 0 0 0 0 0 0 0 0 0 0 0 0 0 0 0 0 0 0 0 0
0 0 0 0 0 0 0 0 0 0 0 0 0 0 0 0 0 0 0 0 0 0 0 0 0 0 0 0 0 0 0 0 0 0 0 0 0 0
0 0 0 0 0 0 0 0 0 0 0 0 0 0 0 0 0 0 0 0 0 0 0 0 0 0 0 0 0 0 0 0 0 0 0 0 0 0
0 0 0 0 0 0 0 0 0 0 0 0 0 0 0 0 0 0 0 0 0 0 0 0 0 0 0 0 0 0 0 0 0 0 0 0 0 0
0 0 0 0 0 0 0 0 0 0 0 0 0 0 0 0 0 0 0 0 0 0 0 0 0 0 0 0 0 0 0 0 0 0 0 0 0 0
CIN
0 0 0 0 0 0 0 0 -1 0 -8 0 0 0 0 0 0 0 0 0 0 0 0 0 0 0 0 0 0 -3 -3 -25 0 -3 -12 -12 -16 -55
0 0 0 0 0 0 0 0 0 -3 -3 0 0 0 0 0 0 0 0 0 0 -2 0 0 0 0 0 0 0 0 0 -3 -14 -11 0 0 0 0
0 0 0 0 0 0 0 0 0 -12 -9 0 0 0 0 0 0 0 0 0 0 0 0 0 0 0 0 0 0 0 0 0 0 0 0 0 0 0
0 0 0 0 0 0 0 0 0 0 0 0 0 0 0 0 0 0 0 0 0 0 0 0 0 0 0 0 0 0 0 0 0 0 0 0 0 0
0 0 0 0 0 0 0 0 0 0 0 0 0 0 0 0 0 0 0 0 0 0 0 0 0 0 0 0 0 0 0 0 0 0 0 0 0 0
0 0 0 0 0 0 0 0 0 0 0 0 0 0 0 0 0 0 0 0 0 0 0 0 0 0 0 0 0 0 0 0 0 0 0 0 0 0
0 0 0 0 0 0 0 0 0 0 0 0 0 0 0 0 0 0 0 0 0 0 0 0 0 0 0 0 0 0 0 0 0 0 0 0 0 0
0 0 0 0 0 0 0 0 0 0 0 0 0 0 0 0 0 0 0 0 0 0 0 0 0 0 0 0 0 0 0 0 0 0 0 0 0 0
0 0 0 0 0 0 0 0 0 0 0 0 0 0 0 0 0 0 0 0 0 0 0 0 0 0 0 0 0 0 0 0 0 0 0 0 0 0
0 0 0 0 0 0 0 0 0 0 0 0 0 0 0 0 0 0 0 0 0 0 0 0 0 0 0 0 0 0 0 0 0 0 0 0 0 0
0 0 0 0 0 0 0 0 0 0 0 0 0 0 0 0 0 0 0 0 0 0 0 0 0 0 0 0 0 0 0 0 0 0 0 0 0 0
0 0 0 0 0 0 0 0 0 0 0 0 0 0 0 0 0 0 0 0 0 0 0 0 0 0 0 0 0 0 0 0 0 0 0 0 0 0
0 0 0 0 0 0 0 0 0 0 0 0 0 0 0 0 0 0 0 0 0 0 0 0 0 0 0 0 0 0 0 0 0 0 0 0 0 0
0 0 0 0 0 0 0 0 0 0 0 0 0 0 0 0 0 0 0 0 0 0 0 0 0 0 0 0 0 0 0 0 0 0 0 0 0 0
0 0 0 0 0 0 0 0 0 0 0 0 0 0 0 0 0 0 0 0 0 0 0 0 0 0 0 0 0 0 0 0 0 0 0 0 0 0
0 0 0 0 0 0 0 0 0 0 0 0 0 0 0 0 0 0 0 0 0 0 0 0 0 0 0 0 0 0 0 0 0 0 0 0 0 0
0 0 0 0 0 0 0 0 0 0 0 0 0 0 0 0 0 0 0 0 0 0 0 0 0 0 0 0 0 0 0 0 0 0 0 0 0 0
0 0 0 0 0 0 0 0 0 0 0 0 0 0 0 0 0 0 0 0 0 0 0 0 0 0 0 0 0 0 0 0 0 0 0 0 0 0
0 0 0 0 0 0 0 0 0 0 0 0 0 0 0 0 0 0 0 0 0 0 0 0 0 0 0 0 0 0 0 0 0 0 0 0 0 0
0 0 0 0 0 0 0 0 0 0 0 0 0 0 0 0 0 0 0 0 0 0 0 0 0 0 0 0 0 0 0 0 0 0 0 0 0 0
0 0 0 0 0 0 0 0 0 0 0 0 0 0 0 0 0 0 0 0 0 0 0 0 0 0 0 0 0 0 0 0 0 0 0 0 0 0
0 0 0 0 0 0 0 0 0 0 0 0 0 0 0 0 0 0 0 0 0 0 0 0 0 0 0 0 0 0 0 0 0 0 0 0 0 0
0 0 0 0 0 0 0 0 0 0 0 0 0 0 0 0 0 0 0 0 0 0 0 0 0 0 0 0 0 0 0 0 0 0 0 0 0 0
Wind_Speed
26 25 25 25 26 27 27 27 29 35 30 23 23 18 18 20 19 20 21 23 22 22 21 20 19 20 21 22 22 18 11 6 8 9 8 6 6 7
26 26 27 27 28 28 28 28 27 28 31 24 22 22 19 18 19 19 21 21 21 19 18 17 17 18 18 18 18 17 15 12 10 10 7 6 6 8
29 28 29 30 30 30 29 29 27 25 27 24 24 21 19 17 19 19 20 19 19 17 16 15 15 15 16 16 15 14 13 11 10 8 7 8 7 9
29 29 29 28 28 28 27 27 25 25 26 25 24 22 21 19 18 18 19 18 16 15 15 14 14 14 14 15 14 13 12 10 10 9 9 9 9 9
27 28 28 27 28 26 25 25 26 26 24 24 23 21 21 17 18 17 16 16 14 14 14 14 14 15 15 15 14 13 11 10 10 10 10 11 11 11
26 27 26 26 26 27 26 27 26 25 23 22 20 20 20 18 16 16 15 14 13 13 15 15 15 15 15 14 14 13 12 12 11 11 11 11 11 12
24 25 26 26 26 25 25 26 24 23 22 20 20 19 18 17 15 14 13 12 13 14 14 16 16 16 16 15 15 14 13 13 12 12 12 12 13 13
24 25 25 25 25 24 23 23 21 20 20 19 17 18 16 15 12 11 11 12 14 14 13 14 16 16 17 16 15 15 14 13 13 12 12 12 12 12
25 24 23 23 24 22 22 22 20 20 18 18 17 15 14 12 10 10 11 13 12 11 13 13 16 15 16 15 16 15 14 13 12 11 12 11 10 11
23 21 21 21 21 21 21 20 20 20 19 18 16 16 14 10 9 8 8 10 11 12 14 14 16 15 16 15 16 15 12 12 12 11 11 11 11 11
21 20 19 20 19 19 19 18 18 18 19 17 15 12 11 8 7 8 9 8 13 12 14 15 15 15 15 15 16 14 13 12 13 12 12 12 12 13
21 20 19 18 17 16 16 16 17 18 17 15 14 12 10 8 7 10 7 7 11 13 13 13 15 14 16 16 15 15 14 14 14 13 14 13 13 14
20 19 18 17 16 16 14 14 14 14 13 12 12 11 10 10 11 11 9 10 12 13 14 14 14 14 16 16 15 15 15 15 15 15 16 15 14 14
19 18 18 17 17 14 14 13 13 12 11 11 10 10 10 11 11 11 12 13 14 16 11 13 16 15 15 16 17 17 15 16 16 16 17 17 16 16
17 18 18 17 15 14 12 12 13 10 9 10 11 11 12 10 9 10 12 13 15 15 14 17 17 15 17 18 19 18 18 17 16 18 19 17 16 16
16 17 17 17 15 14 13 13 13 10 8 9 10 11 11 10 7 8 9 14 17 19 19 19 18 16 19 18 18 19 18 21 19 17 17 17 17 16
16 16 16 16 14 13 13 13 13 12 10 11 11 13 10 9 8 9 14 16 18 19 19 18 18 18 19 19 21 20 21 20 19 20 20 20 18 18
15 16 15 14 15 12 12 12 13 11 11 11 12 12 10 9 10 14 16 15 16 18 20 18 18 20 22 22 15 21 21 21 20 18 19 19 19 19
14 14 16 14 13 13 13 12 12 11 11 10 10 11 12 14 15 16 16 17 19 19 20 18 19 21 23 25 24 14 18 20 19 18 16 15 19 20
15 15 15 16 17 17 17 16 15 16 14 13 13 14 14 16 17 18 18 18 19 21 22 21 20 19 19 24 25 23 14 17 18 18 18 18 20 23
18 17 16 17 17 17 18 19 19 20 19 19 19 18 17 18 19 19 19 19 20 22 24 24 21 18 20 23 26 25 21 16 16 17 20 22 25 23
20 21 20 20 19 18 18 18 19 21 21 21 21 20 20 19 21 21 21 21 20 21 23 25 23 19 19 21 25 25 25 22 17 15 16 17 21 23
24 23 22 22 22 22 23 23 24 24 23 22 23 24 24 24 23 24 23 23 24 24 24 25 23 22 23 23 25 27 26 25 23 23 22 19 17 18
Wind_Direction
322 322 321 320 319 320 317 317 315 309 314 316 315 318 321 322 324 326 330 334 336 338 338 339 343 347 344 342 346 359 9 42 100 106 107 91 62 36
321 320 319 318 316 315 315 315 314 310 309 316 317 318 317 320 322 324 327 332 336 338 341 344 345 349 346 345 354 7 26 43 70 85 82 59 25 11
319 317 314 315 313 312 311 312 312 312 309 314 317 316 314 315 319 324 326 331 336 339 342 344 346 350 348 344 353 3 12 20 36 35 24 19 16 7
317 317 316 317 317 318 316 314 312 310 310 310 313 311 311 313 317 321 323 329 334 337 339 340 344 341 338 337 343 350 357 5 9 11 10 10 10 4
319 316 317 319 317 319 321 318 313 312 310 310 312 313 314 314 316 321 325 327 329 331 334 332 331 331 332 331 334 339 344 354 349 347 346 349 351 349
320 318 319 321 320 318 317 316 314 312 311 310 312 313 314 316 314 314 317 320 320 324 321 327 325 327 329 330 331 330 334 337 337 335 338 343 343 342
325 322 320 321 322 322 320 317 316 313 311 310 310 313 314 314 310 313 311 314 314 316 319 318 316 319 317 323 320 323 326 327 328 331 335 334 334 335
323 324 326 325 325 325 325 322 321 317 315 314 312 311 312 316 317 309 307 306 308 316 316 315 317 308 311 320 323 324 324 323 323 327 333 333 336 340
325 326 327 329 329 331 331 330 327 324 321 319 315 315 316 312 312 301 303 308 317 329 319 317 307 309 312 317 321 326 326 327 329 335 340 343 346 344
327 330 331 330 330 331 331 331 328 327 324 321 318 317 317 323 306 310 314 319 329 321 314 316 306 308 310 315 318 329 332 331 331 339 345 346 347 346
330 334 334 334 335 332 332 335 334 332 331 332 329 331 328 332 323 320 311 318 315 316 307 311 307 304 309 311 316 328 334 332 330 332 335 337 336 336
328 332 334 335 336 337 338 338 332 329 330 336 339 342 343 348 339 321 320 312 321 317 311 309 307 311 311 310 316 320 324 325 327 328 329 329 330 330
325 329 333 337 337 338 339 338 337 336 334 342 336 336 343 337 330 326 332 317 312 318 310 307 312 311 312 320 320 320 321 320 320 321 322 323 325 328
326 330 331 331 332 338 342 341 337 340 336 335 332 334 333 331 331 328 323 319 313 304 314 313 312 314 315 320 319 321 321 321 321 318 317 316 319 321
328 329 330 329 331 334 341 342 335 339 336 327 322 320 319 327 335 329 324 320 309 307 309 307 309 315 313 316 317 320 323 320 319 315 314 313 315 319
326 328 329 327 329 332 333 334 333 335 332 327 320 318 320 321 325 327 325 310 303 302 303 303 307 313 311 315 318 317 320 318 321 320 316 313 314 317
328 328 328 329 330 329 332 331 326 324 320 320 318 314 314 315 313 313 308 305 302 305 307 306 307 309 311 315 316 315 316 314 312 310 310 310 311 312
324 323 325 325 327 330 330 327 322 321 318 315 312 309 307 304 303 302 302 303 304 303 302 306 308 309 310 311 308 314 315 314 312 313 313 312 314 314
320 321 319 322 323 325 324 322 319 319 318 310 305 301 300 300 299 298 297 299 298 300 301 303 303 303 303 305 314 313 315 316 316 315 315 314 314 313
317 314 315 315 315 315 315 314 313 312 309 305 302 300 297 296 295 294 294 294 295 297 297 297 296 294 297 304 307 313 311 313 314 315 315 314 311 311
312 311 312 312 312 312 311 310 309 306 305 302 300 298 296 294 292 293 292 291 292 294 294 294 293 293 297 301 301 304 306 303 309 312 316 312 308 311
312 310 310 310 308 308 308 307 307 305 303 301 300 298 296 293 292 292 291 290 289 291 294 297 299 296 292 291 296 298 302 305 304 301 305 304 307 310
309 310 310 309 308 306 304 302 300 300 300 299 298 297 296 293 292 292 291 290 290 291 292 293 294 293 291 292 295 295 296 299 302 303 303 300 294 295